Dewpoint
50 49 49 50 50 51 50 41 32 49 52 33 38 33 30 31 31 33 32 31 29 28 29 29 29 28 31 33 32 28 29 27 20 18 29 31 29 26 24 22 18 22 24 21
50 49 49 50 50 49 46 35 39 48 50 39 40 35 33 32 31 31 31 32 32 32 31 30 30 32 36 36 32 32 30 28 19 17 27 29 26 26 25 26 28 23 22 22
49 49 49 50 50 49 50 38 38 39 41 38 31 32 30 32 34 33 33 33 33 32 30 32 32 32 35 37 35 34 34 26 22 17 16 18 18 19 19 22 24 24 22 21
50 49 49 49 50 48 49 40 39 40 36 37 33 32 31 30 30 32 32 31 31 31 30 30 30 30 33 33 35 35 32 26 26 25 21 20 20 21 21 19 20 21 24 23
50 49 49 49 50 47 45 36 38 39 40 36 34 34 31 28 30 30 29 29 30 28 30 22 25 24 24 25 33 31 33 30 31 26 23 21 21 21 20 20 22 23 23 23
50 50 49 49 50 50 42 44 45 40 37 36 35 33 31 29 32 35 30 30 27 27 29 33 34 35 34 32 31 32 34 33 30 27 30 29 27 27 21 22 23 26 24 25
51 51 50 48 50 51 48 46 42 44 38 38 34 32 32 31 31 31 32 30 32 37 38 37 36 36 35 35 36 36 38 34 36 32 31 25 26 25 24 23 24 24 24 26
51 51 50 48 50 50 48 45 44 42 40 36 35 33 32 35 34 34 35 39 39 39 37 36 31 30 29 33 33 34 35 37 33 30 25 24 25 26 26 25 26 27 30 34
51 51 51 49 49 51 49 48 48 44 37 40 35 35 36 36 37 38 41 43 43 42 41 36 23 26 25 25 30 34 36 38 34 32 27 22 27 28 30 30 26 35 36 36
51 51 51 50 48 50 52 51 53 44 45 39 37 37 37 37 36 36 40 41 42 42 41 33 34 29 29 24 25 31 33 34 32 30 28 28 27 30 32 27 31 38 38 38
50 51 51 51 48 49 52 51 52 49 44 41 41 40 40 39 36 41 41 39 42 43 37 37 37 36 32 30 26 29 29 32 30 31 28 26 30 30 33 33 36 39 39 39
50 50 50 51 49 48 50 48 49 51 45 45 48 48 47 46 40 38 42 37 40 40 40 41 40 34 37 36 27 27 26 29 29 31 29 29 33 34 38 38 39 39 40 39
51 50 50 51 50 48 51 50 50 48 50 45 44 42 47 45 46 46 41 44 40 41 43 43 41 34 38 32 33 30 30 29 31 32 31 31 34 37 40 41 40 40 39 37
51 51 50 51 50 48 50 50 50 48 46 40 45 44 46 47 48 46 46 42 46 44 44 40 37 35 38 38 33 30 33 32 32 33 33 33 34 40 40 39 40 39 34 29
50 50 50 50 50 49 52 52 51 51 48 42 45 44 45 46 48 47 45 44 44 45 41 38 37 42 40 41 39 35 33 31 34 34 36 38 39 40 39 38 37 32 28 25
50 50 50 50 51 50 52 46 51 51 52 46 41 46 43 44 46 47 45 44 44 44 44 41 42 40 39 37 35 33 34 34 34 35 40 40 41 40 39 33 29 28 25 24
50 49 50 50 51 53 49 46 49 49 52 45 41 43 42 43 45 45 45 47 45 45 44 43 43 41 40 40 34 32 34 36 38 40 40 38 39 36 32 30 26 25 23 18
49 50 49 50 50 49 50 51 49 50 48 48 41 40 41 42 43 43 42 43 44 44 42 42 41 41 42 37 36 34 36 37 37 38 39 40 39 31 27 25 21 17 15 15
49 49 49 49 49 48 50 48 50 51 48 43 39 36 35 41 40 41 40 42 38 42 39 39 41 38 35 37 35 36 35 36 36 37 35 31 27 24 19 15 15 15 16 16
48 48 46 43 44 48 49 49 47 45 45 44 39 42 38 39 38 37 37 38 36 33 36 36 33 34 38 37 37 36 36 36 36 32 29 26 23 16 15 16 18 18 18 22
44 40 39 43 46 44 42 40 40 39 37 38 39 40 37 40 36 35 36 35 34 31 33 33 33 31 34 36 35 35 34 33 31 28 24 17 16 16 17 19 21 23 23 25
43 42 44 43 39 36 37 35 34 34 34 34 34 36 38 37 39 35 32 32 31 29 33 31 27 30 33 34 34 33 31 29 23 18 15 17 17 19 23 24 23 23 28 30
41 36 34 33 32 30 30 28 30 31 32 33 34 32 34 35 36 32 32 29 29 31 28 26 27 29 31 33 31 30 27 23 21 16 16 18 19 23 27 27 29 30 29 29
33 32 30 30 30 30 31 32 32 34 35 35 34 32 32 32 32 31 30 29 29 26 24 25 28 29 30 30 30 29 25 24 20 18 20 23 28 29 31 30 30 29 29 30
33 33 28 29 30 32 32 33 33 34 36 35 35 34 35 31 29 31 28 25 24 25 24 27 27 28 28 27 27 23 22 23 23 20 21 26 28 30 30 31 32 32 32 32
31 32 30 31 31 31 32 32 32 35 35 36 35 31 30 29 30 26 26 26 22 25 28 30 26 24 24 25 24 25 23 23 21 20 22 24 29 29 30 31 31 31 31 31
30 29 33 32 33 32 32 34 34 36 35 31 32 28 28 28 27 26 25 25 27 29 29 25 24 24 24 26 27 28 27 26 23 24 24 26 29 31 31 30 29 29 29 31
Wind_Speed
9 11 14 15 7 3 5 5 7 2 3 10 6 7 6 3 8 3 3 3 4 6 5 4 3 5 5 3 5 4 6 2 2 4 3 3 4 4 4 3 3 4 4 11
8 11 14 16 10 3 6 4 6 3 4 6 5 5 7 3 7 4 5 4 2 4 6 4 6 5 5 4 5 6 7 1 4 5 6 4 4 1 2 1 2 11 11 8
8 10 13 16 12 5 4 5 5 5 7 4 11 11 11 7 3 4 4 7 7 9 6 4 8 7 4 2 4 4 2 1 3 7 10 9 10 11 10 12 11 14 17 20
7 10 13 17 15 5 3 2 3 3 11 9 11 11 12 12 6 3 7 5 5 8 5 7 5 6 6 3 3 1 2 2 5 11 14 13 14 15 16 18 18 19 20 20
7 10 13 17 17 6 3 4 4 3 3 8 11 7 12 14 6 10 8 8 9 6 7 2 7 5 3 2 4 1 2 0 5 5 8 11 16 19 21 19 11 16 15 18
6 10 14 17 19 7 2 2 1 5 3 10 11 10 11 11 11 2 5 12 10 11 9 10 9 8 5 4 2 2 1 1 4 5 13 17 9 2 1 5 8 8 13 13
6 10 13 17 18 13 3 2 2 4 7 11 12 9 10 13 8 10 11 8 10 6 10 11 10 10 6 3 3 1 4 1 2 5 11 4 5 10 16 12 11 11 9 8
5 9 13 15 17 13 3 2 2 4 6 8 7 11 15 11 12 15 12 6 7 10 2 2 2 2 3 3 4 3 1 4 2 2 8 18 12 5 6 9 16 12 6 9
5 7 10 13 15 12 2 5 3 2 11 7 10 12 16 16 11 9 5 6 4 3 3 2 3 3 1 5 5 5 4 2 4 4 4 5 2 7 5 7 13 7 7 13
4 6 9 12 14 13 4 4 4 2 5 4 8 9 14 6 11 8 8 8 4 2 3 2 4 4 1 3 4 5 2 2 6 8 8 11 10 3 5 5 4 8 11 7
3 4 7 10 13 12 5 3 5 4 4 6 2 3 8 6 9 8 10 7 2 4 4 5 4 2 5 3 3 4 7 6 6 4 5 8 4 4 4 10 14 6 5 7
3 2 5 8 11 14 7 1 2 4 3 4 3 3 3 4 3 5 12 1 7 8 5 5 4 3 2 3 4 4 6 9 5 10 9 12 8 11 13 5 5 7 2 6
4 2 2 6 9 11 8 2 2 1 4 4 5 4 3 2 3 2 5 3 4 6 2 7 4 4 8 8 8 11 8 12 11 11 9 17 11 12 7 6 1 4 6 14
5 3 0 3 7 8 5 0 2 2 4 5 4 1 3 3 1 1 2 9 6 9 6 4 5 5 11 7 10 12 12 10 14 20 22 19 14 6 3 2 3 5 8 7
7 4 2 1 4 5 3 3 3 3 3 4 3 2 1 1 1 4 5 11 8 5 4 4 7 4 4 3 3 13 14 20 18 19 10 8 8 4 6 6 5 4 6 9
9 6 5 3 4 7 3 4 2 3 4 3 5 2 3 1 4 6 8 9 6 7 6 5 5 7 8 8 6 8 9 11 15 14 1 4 3 3 6 3 2 4 7 12
12 9 8 5 2 5 2 1 3 4 2 2 2 4 2 0 5 3 5 2 4 5 4 6 5 8 7 5 15 10 12 10 3 1 6 3 6 4 3 2 4 5 11 15
15 11 7 5 6 5 4 3 3 5 3 2 3 3 2 5 4 4 1 3 2 6 3 2 4 4 1 8 12 14 7 5 4 6 5 4 6 4 4 3 7 12 15 17
16 13 14 3 2 5 2 5 3 4 2 3 4 10 6 7 2 3 3 3 4 1 4 5 4 7 10 11 11 10 10 8 9 8 8 9 4 2 4 8 11 14 16 17
18 9 6 6 5 8 13 3 2 1 2 2 6 5 5 6 5 3 5 1 4 4 4 3 6 6 10 6 5 5 9 10 10 11 8 4 3 5 8 10 12 13 15 16
2 3 1 2 5 3 1 6 6 4 4 6 5 7 8 2 5 6 1 4 4 4 4 5 4 5 12 12 9 8 10 11 9 4 5 1 3 7 10 11 11 12 14 15
7 6 5 3 2 3 5 8 4 7 8 5 7 4 4 4 2 4 4 5 4 5 7 3 4 5 8 12 13 12 12 10 8 3 1 4 7 9 10 11 13 14 13 15
6 6 4 2 0 3 8 11 5 6 7 7 5 5 4 3 3 4 4 6 5 0 3 4 5 8 9 12 14 12 11 8 2 2 5 8 11 10 9 13 13 14 14 15
3 2 4 2 2 3 3 3 5 4 5 11 10 5 3 2 3 3 4 2 3 4 4 5 2 7 11 11 9 10 10 6 1 6 9 10 10 13 12 14 15 14 16 16
2 2 3 3 2 4 4 5 4 4 7 5 6 5 2 3 3 1 4 4 3 4 3 3 2 7 9 9 8 7 2 3 6 10 12 12 14 14 14 12 12 12 14 17
2 3 4 2 4 3 3 5 5 4 2 4 4 3 3 2 1 3 4 3 5 2 2 2 6 7 6 7 7 6 5 7 12 14 15 14 13 14 16 13 13 15 14 15
3 2 3 3 4 4 2 1 3 3 1 2 3 2 2 3 2 3 3 4 1 2 5 5 6 5 2 5 8 8 9 12 14 15 14 13 12 12 12 15 15 10 11 12
Wind_Direction
16 12 358 2 25 125 198 187 188 84 214 181 203 196 158 120 146 157 114 88 118 160 145 132 108 136 57 58 359 32 31 12 285 20 63 336 329 346 327 295 302 246 292 282
21 13 359 357 2 347 185 199 108 116 231 167 188 161 134 133 165 151 163 136 162 173 145 123 127 121 91 56 13 23 11 53 302 194 163 174 284 3 301 330 282 253 256 264
23 13 359 353 349 328 269 178 125 144 215 297 192 182 173 144 92 110 104 123 143 137 145 123 153 129 135 88 46 35 307 342 302 300 316 318 293 275 268 254 258 272 273 286
16 10 359 354 349 327 265 255 150 138 186 218 200 184 183 168 153 136 167 159 183 158 147 136 146 142 140 140 129 134 348 265 326 300 302 305 296 284 272 263 262 260 276 286
19 6 359 358 353 330 228 188 159 166 146 170 177 168 198 183 143 159 170 183 157 164 152 205 171 161 198 157 166 141 35 81 332 292 301 317 303 286 274 264 273 281 286 294
27 12 3 4 359 337 150 98 44 162 173 176 176 192 172 177 149 50 193 150 145 106 83 72 61 62 69 97 166 157 344 352 351 283 334 321 294 281 318 282 278 259 269 289
39 18 11 10 8 5 357 71 172 126 160 184 190 182 171 163 174 145 126 143 123 102 112 98 70 71 69 121 77 346 140 110 59 295 322 315 37 297 295 277 286 280 288 342
58 25 16 13 14 4 60 94 260 129 129 173 161 164 151 129 132 141 123 69 95 146 98 105 80 114 76 110 55 91 209 141 146 269 294 288 301 53 4 333 300 318 349 3
76 40 22 16 18 8 55 61 328 87 127 209 164 158 165 152 142 137 110 101 120 146 93 114 185 204 214 151 140 64 77 136 232 178 270 272 41 18 342 300 272 53 356 339
87 48 27 18 18 8 349 69 357 274 107 132 170 163 181 173 180 147 146 151 140 232 116 151 188 209 316 207 196 209 129 186 226 229 248 266 298 357 296 258 327 335 341 325
109 59 33 22 14 8 342 75 16 341 86 133 158 136 155 165 186 161 135 140 159 138 159 175 204 198 202 214 249 187 201 191 208 209 252 276 166 222 257 326 319 346 310 283
143 67 28 22 13 7 345 132 47 345 64 98 66 74 18 9 1 150 176 188 153 176 153 177 161 184 180 200 239 187 253 212 238 193 251 298 236 253 264 281 335 333 303 324
186 160 17 12 14 6 357 95 49 86 92 114 172 159 87 105 35 348 167 210 154 178 45 151 161 203 174 185 226 257 273 260 238 277 262 294 306 312 66 78 106 165 216 259
199 194 199 356 6 5 350 41 32 2 91 137 162 83 157 346 256 174 349 123 104 123 140 128 156 195 204 215 251 256 250 278 261 267 287 299 284 80 95 191 257 249 264 302
190 190 193 290 339 351 40 74 54 21 295 154 142 136 95 8 219 173 149 152 154 153 143 153 201 221 216 179 286 257 253 261 260 266 300 275 311 20 304 269 226 277 313 306
191 187 195 225 308 322 225 200 127 23 340 124 151 88 152 162 190 185 187 185 199 213 168 200 242 202 211 193 219 257 277 286 282 291 308 220 131 283 248 300 340 311 318 310
193 195 201 199 298 295 269 346 36 347 302 123 145 202 97 162 146 143 193 171 209 203 217 207 203 208 214 202 243 254 267 284 300 23 135 71 185 202 178 270 301 290 310 311
191 193 189 154 116 112 239 66 30 331 115 60 191 177 185 196 174 181 317 166 223 218 249 110 214 230 233 250 248 256 242 163 139 127 101 74 203 198 220 278 325 319 313 321
187 168 151 112 164 177 169 129 70 43 337 212 167 172 189 163 108 91 115 167 193 104 228 202 217 187 218 240 252 202 186 193 166 167 171 167 194 276 321 328 320 316 315 320
151 140 181 195 195 136 139 68 148 335 324 182 208 155 158 192 163 150 134 166 212 214 217 147 226 245 258 252 237 201 190 193 176 168 175 189 262 313 316 313 314 316 322 317
110 143 138 23 105 106 111 161 182 174 239 204 182 179 152 188 158 166 189 185 183 226 186 212 234 252 220 189 173 160 158 157 162 154 117 145 302 302 303 305 316 312 309 308
107 110 101 82 60 87 155 175 170 197 207 175 160 136 123 117 117 119 180 187 187 229 149 213 247 209 146 169 164 156 152 152 143 135 246 301 300 306 305 300 303 305 307 299
44 48 51 60 99 203 183 187 194 188 160 158 150 125 119 121 99 121 164 181 198 279 199 231 234 131 162 162 161 158 154 128 111 265 300 307 303 308 295 288 291 293 294 293
68 99 105 340 144 11 353 10 98 68 105 119 114 97 121 128 109 137 164 81 186 213 234 232 191 169 164 160 158 169 168 152 262 301 301 294 285 282 280 276 281 288 289 292
71 7 79 60 59 42 28 359 57 48 108 109 101 76 75 76 103 76 118 156 222 228 244 38 101 150 148 142 157 161 166 265 290 297 294 284 278 278 279 280 277 279 278 284
62 47 104 112 89 76 44 62 68 21 53 56 63 89 99 110 111 179 201 202 219 158 129 162 138 138 145 168 187 211 265 296 297 291 286 282 271 273 284 293 288 280 274 277
139 113 58 99 89 120 106 103 128 133 67 93 115 146 113 119 195 214 208 226 358 128 150 122 102 133 178 238 230 245 277 289 291 287 283 277 279 284 282 286 292 283 289 283